Location: Little Baddow
(51.7333°N, 0.5667°E)
Time: 23:16:32
(UTC+00:00)

Aureole 3 Rocket - Pass Details

Date: 08 November 2025
Orbit: 397 x 1691 km, 82.5° (Epoch: 04 December)

Event Time Altitude Azimuth Distance (km) Brightness Sun altitude
Rises 06:03:09 0° 346° (NNW) 2,664 6.0 -9.7°
Reaches altitude 10° 06:05:01 10° 344° (NNW) 1,886 5.3 -9.5°
Maximum altitude 06:09:06 69° 262° (W) 749 3.3 -8.8°
Drops below altitude 10° 06:14:43 10° 180° (S) 2,574 6.5 -8.0°
Sets 06:17:38 0° 178° (S) 3,736 7.3 -7.6°
